This demonstration page uses our WeatherBlox Daily Observations layout. Learn more.

Left ArrowRight Arrow

34.74481, -87.66753

Hourly Observations for May 28, 2019

Temp ( °F °C ) Dew Point ( °F °C ) Humidity (%) Winds ( mph kmh ) Pressure ( in mb ) Visibility ( mi km ) Precip ( " mm )
12:53 am 00:53 Clear 75 23.9 66 18.9 74 74 S 5 7 29.91 1013 10 16 0.00 0.00
1:53 am 01:53 Clear 76 24.4 67 19.4 74 74 SSW 6 9 29.90 1013 10 16 0.00 0.00
2:53 am 02:53 Clear 75 23.9 67 19.4 76 76 SSW 7 11 29.90 1013 10 16 0.00 0.00
3:53 am 03:53 Clear 72 22.2 66 18.9 82 82 SW 3 6 29.91 1013 10 16 0.00 0.00
4:53 am 04:53 Clear 70 21.1 66 18.9 87 87 Calm 29.92 1013 10 16 0.00 0.00
5:53 am 05:53 Partly Cloudy 72 22.2 67 19.4 84 84 Calm 29.93 1014 10 16 0.00 0.00
6:53 am 06:53 Mostly Sunny 74 23.3 68 20 82 82 S 3 6 29.95 1014 10 16 0.00 0.00
7:19 am 07:19 Mostly Cloudy 76 24.4 68 20 77 77 SSW 7 11 29.96 1015 10 16 0.00 0.00
7:53 am 07:53 Sunny 78 25.6 69 20.6 74 74 SSW 7 11 29.95 1014 10 16 0.00 0.00
8:53 am 08:53 Sunny 84 28.9 71 21.7 65 65 SW 13 20 29.94 1014 10 16 0.00 0.00
9:53 am 09:53 Partly Cloudy 86 30 70 21.1 59 59 SW 15 24 29.94 1014 10 16 0.00 0.00
10:53 am 10:53 Mostly Cloudy 90 32.2 70 21.1 52 52 WSW 12 19 29.93 1014 10 16 0.00 0.00
11:53 am 11:53 Partly Cloudy 90 32.2 68 20 48 48 SW 13 20 29.93 1014 10 16 0.00 0.00
12:53 pm 12:53 Partly Cloudy 92 33.3 68 20 46 46 WSW 12 19 29.92 1013 10 16 0.00 0.00
1:53 pm 13:53 Mostly Sunny 94 34.4 67 19.4 41 41 SW 17 28 29.90 1012 10 16 0.00 0.00
2:53 pm 14:53 Partly Cloudy 94 34.4 66 18.9 40 40 WSW 15 24 29.88 1012 10 16 0.00 0.00
3:53 pm 15:53 Partly Cloudy 94 34.4 66 18.9 40 40 SW 14 22 29.87 1011 10 16 0.00 0.00
5:53 pm 17:53 Sunny 91 32.8 66 18.9 44 44 SW 14 22 29.85 1011 10 16 0.00 0.00
6:53 pm 18:53 Sunny 89 31.7 67 19.4 48 48 SW 14 22 29.84 1011 10 16 0.00 0.00
7:53 pm 19:53 Sunny 85 29.4 68 20 57 57 SSW 8 13 29.85 1011 10 16 0.00 0.00
8:53 pm 20:53 Clear 83 28.3 68 20 61 61 S 7 11 29.85 1011 10 16 0.00 0.00
9:53 pm 21:53 Clear 80 26.7 69 20.6 69 69 S 5 7 29.86 1011 10 16 0.00 0.00
10:53 pm 22:53 Clear 79 26.1 68 20 69 69 S 6 9 29.85 1011 10 16 0.00 0.00
11:53 pm 23:53 Clear 78 25.6 68 20 71 71 S 6 9 29.86 1011 10 16 0.00 0.00

Powered by AerisWeather